| time (UTC) | temp C | wind direction | speed KPH | gust KPH | rain 1hr cm | rain 24hr cm | rain mn cm | humidity % | barometer mb |
| 20260503032725 | 8 | 14 | 0.0 | 0.0 | 0.00 | 0.43 | 0.43 | 96 | 1016.6 |
| 20260503032223 | 8 | 31 | 0.0 | 0.0 | 0.00 | 0.43 | 0.43 | 96 | 1016.5 |
| 20260503031720 | 8 | 31 | 0.0 | 0.0 | 0.00 | 0.43 | 0.43 | 96 | 1016.3 |
| 20260503031218 | 8 | 31 | 0.0 | 0.0 | 0.00 | 0.43 | 0.43 | 96 | 1016.5 |
| 20260503030714 | 8 | 31 | 0.0 | 0.0 | 0.00 | 0.43 | 0.43 | 96 | 1016.3 |
| 20260503030210 | 8 | 31 | 0.0 | 0.0 | 0.00 | 0.43 | 0.43 | 96 | 1016.4 |
| 20260503025708 | 8 | 31 | 0.0 | 0.0 | 0.00 | 0.43 | 0.43 | 96 | 1016.3 |
| 20260503025205 | 8 | 32 | 0.0 | 0.0 | 0.00 | 0.43 | 0.43 | 95 | 1016.4 |
| 20260503024701 | 8 | 31 | 0.0 | 0.0 | 0.00 | 0.43 | 0.43 | 95 | 1016.4 |
| 20260503024159 | 8 | 31 | 0.0 | 0.0 | 0.00 | 0.43 | 0.43 | 95 | 1016.3 |
| 20260503023656 | 9 | 31 | 0.0 | 0.0 | 0.00 | 0.43 | 0.43 | 95 | 1016.3 |
| 20260503023152 | 9 | 34 | 0.0 | 0.0 | 0.00 | 0.43 | 0.43 | 95 | 1016.2 |
| 20260503022649 | 9 | 43 | 0.0 | 0.0 | 0.00 | 0.43 | 0.43 | 95 | 1016.1 |
| 20260503022148 | 9 | 30 | 0.0 | 0.0 | 0.00 | 0.43 | 0.43 | 95 | 1016.1 |
| 20260503021645 | 9 | 30 | 0.0 | 0.0 | 0.00 | 0.43 | 0.43 | 95 | 1016.2 |
| 20260503021142 | 9 | 38 | 0.0 | 0.0 | 0.00 | 0.43 | 0.43 | 95 | 1016.0 |
| 20260503020639 | 9 | 38 | 0.0 | 0.0 | 0.00 | 0.43 | 0.43 | 95 | 1016.3 |
| 20260503020137 | 9 | 43 | 0.0 | 0.0 | 0.00 | 0.43 | 0.43 | 95 | 1016.1 |
| 20260503015633 | 9 | 45 | 0.0 | 0.0 | 0.00 | 0.43 | 0.43 | 95 | 1016.1 |
| 20260503015130 | 9 | 45 | 0.0 | 0.0 | 0.00 | 0.43 | 0.43 | 95 | 1016.3 |
| 20260503014626 | 9 | 45 | 0.0 | 0.0 | 0.00 | 0.43 | 0.43 | 94 | 1016.3 |
| 20260503014124 | 9 | 45 | 0.0 | 0.0 | 0.00 | 0.43 | 0.43 | 94 | 1016.1 |
| 20260503013621 | 10 | 45 | 0.0 | 0.0 | 0.00 | 0.43 | 0.43 | 94 | 1016.2 |
| 20260503013119 | 10 | 45 | 0.0 | 0.0 | 0.00 | 0.43 | 0.43 | 94 | 1015.7 |
| 20260503012616 | 10 | 45 | 0.0 | 0.0 | 0.00 | 0.43 | 0.43 | 94 | 1015.8 |
| 20260503012113 | 10 | 45 | 0.0 | 0.0 | 0.00 | 0.43 | 0.43 | 94 | 1015.8 |
| 20260503011609 | 10 | 45 | 0.0 | 0.0 | 0.00 | 0.43 | 0.43 | 93 | 1015.7 |
| 20260503011106 | 10 | 45 | 0.0 | 0.0 | 0.00 | 0.43 | 0.43 | 93 | 1015.6 |
| 20260503010602 | 10 | 45 | 0.0 | 0.0 | 0.00 | 0.43 | 0.43 | 93 | 1015.5 |
| 20260503010100 | 10 | 45 | 0.0 | 0.0 | 0.00 | 0.43 | 0.43 | 92 | 1015.6 |
| 20260503005557 | 10 | 45 | 0.0 | 0.0 | 0.00 | 0.43 | 0.43 | 91 | 1015.5 |
| 20260503005054 | 10 | 45 | 0.0 | 0.0 | 0.00 | 0.43 | 0.43 | 91 | 1015.4 |
| 20260503004550 | 10 | 45 | 0.0 | 0.0 | 0.00 | 0.43 | 0.43 | 90 | 1015.2 |
| 20260503004049 | 11 | 45 | 0.0 | 0.0 | 0.00 | 0.43 | 0.43 | 90 | 1015.3 |
| 20260503003545 | 11 | 45 | 0.0 | 0.0 | 0.00 | 0.43 | 0.43 | 90 | 1015.1 |
| 20260503003042 | 11 | 45 | 0.0 | 0.0 | 0.00 | 0.43 | 0.43 | 90 | 1015.0 |
| 20260503002539 | 11 | 45 | 0.0 | 0.0 | 0.00 | 0.43 | 0.43 | 89 | 1015.0 |
| 20260503002036 | 11 | 45 | 0.0 | 0.0 | 0.00 | 0.43 | 0.43 | 89 | 1014.8 |
| 20260503001532 | 12 | 55 | 0.0 | 0.0 | 0.00 | 0.43 | 0.43 | 88 | 1014.9 |
| 20260503001030 | 12 | 54 | 0.0 | 0.0 | 0.00 | 0.43 | 0.43 | 87 | 1014.7 |
| 20260503000527 | 12 | 55 | 0.0 | 0.0 | 0.00 | 0.43 | 0.43 | 86 | 1014.7 |
| 20260503000024 | 12 | 55 | 0.0 | 0.0 | 0.00 | 0.43 | 0.43 | 85 | 1014.6 |
| 20260502235520 | 12 | 36 | 0.0 | 0.0 | 0.00 | 0.43 | 0.43 | 84 | 1014.4 |
| 20260502235019 | 12 | 33 | 0.0 | 0.0 | 0.00 | 0.43 | 0.43 | 82 | 1014.2 |
| 20260502234514 | 12 | 98 | 0.0 | 1.6 | 0.00 | 0.43 | 0.43 | 82 | 1014.2 |
| 20260502234012 | 13 | 49 | 0.0 | 0.0 | 0.00 | 0.43 | 0.43 | 83 | 1014.4 |
| 20260502233512 | 13 | 63 | 0.0 | 0.0 | 0.00 | 0.43 | 0.43 | 82 | 1014.4 |
| 20260502233010 | 13 | 60 | 0.0 | 0.0 | 0.00 | 0.43 | 0.43 | 81 | 1014.3 |
| 20260502232506 | 13 | 46 | 0.0 | 0.0 | 0.00 | 0.43 | 0.43 | 81 | 1014.3 |
| 20260502232002 | 13 | 69 | 0.0 | 0.0 | 0.00 | 0.43 | 0.43 | 81 | 1014.3 |
| 20260502231500 | 13 | 73 | 0.0 | 0.0 | 0.00 | 0.43 | 0.43 | 80 | 1014.3 |
| 20260502230958 | 13 | 45 | 0.0 | 0.0 | 0.00 | 0.43 | 0.43 | 79 | 1014.2 |
| 20260502230455 | 13 | 45 | 0.0 | 0.0 | 0.00 | 0.43 | 0.43 | 79 | 1014.1 |
| 20260502225954 | 13 | 45 | 0.0 | 0.0 | 0.00 | 0.43 | 0.43 | 79 | 1014.2 |
| 20260502225449 | 13 | 58 | 0.0 | 0.0 | 0.00 | 0.43 | 0.43 | 79 | 1014.2 |
| 20260502224946 | 13 | 103 | 0.0 | 1.6 | 0.00 | 0.43 | 0.43 | 78 | 1014.1 |
| 20260502224442 | 13 | 55 | 0.0 | 1.6 | 0.00 | 0.43 | 0.43 | 78 | 1014.2 |
| 20260502223939 | 13 | 33 | 0.0 | 0.0 | 0.00 | 0.43 | 0.43 | 79 | 1014.0 |
| 20260502223437 | 13 | 30 | 0.0 | 0.0 | 0.00 | 0.43 | 0.43 | 78 | 1014.1 |
| 20260502222935 | 13 | 30 | 0.0 | 0.0 | 0.00 | 0.43 | 0.43 | 78 | 1014.1 |
| 20260502222433 | 13 | 30 | 0.0 | 0.0 | 0.00 | 0.43 | 0.43 | 78 | 1014.1 |
| 20260502221928 | 13 | 63 | 0.0 | 0.0 | 0.00 | 0.43 | 0.43 | 76 | 1014.1 |
| 20260502221425 | 13 | 108 | 0.0 | 1.6 | 0.00 | 0.43 | 0.43 | 76 | 1014.0 |
| 20260502220922 | 13 | 23 | 0.0 | 0.0 | 0.00 | 0.43 | 0.43 | 77 | 1014.0 |
| 20260502220417 | 13 | 79 | 0.0 | 1.6 | 0.00 | 0.43 | 0.43 | 76 | 1013.7 |
| 20260502215914 | 13 | 101 | 1.6 | 3.2 | 0.00 | 0.43 | 0.43 | 76 | 1014.0 |
| 20260502215412 | 13 | 84 | 0.0 | 1.6 | 0.00 | 0.43 | 0.43 | 76 | 1013.9 |
| 20260502214908 | 13 | 40 | 0.0 | 0.0 | 0.00 | 0.43 | 0.43 | 75 | 1013.7 |
| 20260502214405 | 14 | 45 | 0.0 | 0.0 | 0.00 | 0.43 | 0.43 | 75 | 1013.8 |
| 20260502213902 | 14 | 41 | 0.0 | 0.0 | 0.00 | 0.43 | 0.43 | 74 | 1013.8 |
| 20260502213359 | 14 | 29 | 0.0 | 0.0 | 0.00 | 0.43 | 0.43 | 73 | 1013.9 |
| 20260502212858 | 14 | 32 | 0.0 | 0.0 | 0.00 | 0.43 | 0.43 | 75 | 1013.9 |
| 20260502212356 | 14 | 340 | 0.0 | 1.6 | 0.00 | 0.43 | 0.43 | 73 | 1013.8 |
| 20260502211853 | 14 | 351 | 0.0 | 1.6 | 0.00 | 0.43 | 0.43 | 72 | 1013.9 |
| 20260502211349 | 14 | 89 | 1.6 | 1.6 | 0.00 | 0.43 | 0.43 | 75 | 1013.8 |
| 20260502210846 | 14 | 200 | 1.6 | 3.2 | 0.00 | 0.43 | 0.43 | 76 | 1013.6 |
| 20260502210343 | 13 | 57 | 0.0 | 1.6 | 0.00 | 0.43 | 0.43 | 77 | 1013.6 |
| 20260502205841 | 13 | 34 | 0.0 | 1.6 | 0.00 | 0.43 | 0.43 | 75 | 1013.9 |
| 20260502205336 | 13 | 41 | 0.0 | 3.2 | 0.00 | 0.43 | 0.43 | 75 | 1014.0 |
| 20260502204834 | 13 | 39 | 0.0 | 1.6 | 0.00 | 0.43 | 0.43 | 75 | 1014.0 |
| 20260502204331 | 14 | 62 | 0.0 | 0.0 | 0.00 | 0.43 | 0.43 | 75 | 1013.8 |
| 20260502203828 | 14 | 41 | 0.0 | 1.6 | 0.00 | 0.43 | 0.43 | 74 | 1013.8 |
| 20260502203326 | 14 | 86 | 0.0 | 1.6 | 0.00 | 0.43 | 0.43 | 75 | 1013.8 |
| 20260502202826 | 14 | 57 | 0.0 | 1.6 | 0.00 | 0.43 | 0.43 | 77 | 1014.0 |
| 20260502202324 | 14 | 236 | 1.6 | 1.6 | 0.00 | 0.43 | 0.43 | 75 | 1014.0 |
| 20260502201822 | 13 | 103 | 0.0 | 4.8 | 0.00 | 0.43 | 0.43 | 76 | 1013.8 |
| 20260502201317 | 14 | 38 | 0.0 | 1.6 | 0.00 | 0.43 | 0.43 | 79 | 1013.7 |
| 20260502200814 | 15 | 204 | 4.8 | 9.7 | 0.00 | 0.43 | 0.43 | 73 | 1013.9 |
| 20260502200310 | 15 | 37 | 0.0 | 0.0 | 0.00 | 0.43 | 0.43 | 75 | 1013.7 |
| 20260502195808 | 14 | 23 | 0.0 | 0.0 | 0.00 | 0.43 | 0.43 | 75 | 1013.8 |
| 20260502195305 | 14 | 46 | 0.0 | 1.6 | 0.00 | 0.43 | 0.43 | 76 | 1014.0 |
| 20260502194801 | 14 | 41 | 0.0 | 1.6 | 0.00 | 0.43 | 0.43 | 75 | 1014.3 |
| 20260502194258 | 13 | 34 | 0.0 | 0.0 | 0.00 | 0.43 | 0.43 | 81 | 1014.1 |
| 20260502193754 | 13 | 43 | 0.0 | 1.6 | 0.00 | 0.43 | 0.43 | 78 | 1014.4 |
| 20260502193251 | 13 | 113 | 1.6 | 4.8 | 0.00 | 0.43 | 0.43 | 75 | 1014.4 |
| 20260502192751 | 14 | 40 | 0.0 | 1.6 | 0.00 | 0.43 | 0.43 | 79 | 1014.4 |
| 20260502192249 | 13 | 38 | 0.0 | 0.0 | 0.00 | 0.43 | 0.43 | 78 | 1014.7 |
| 20260502191746 | 13 | 338 | 0.0 | 1.6 | 0.00 | 0.43 | 0.43 | 78 | 1014.6 |
| 20260502191244 | 13 | 222 | 1.6 | 3.2 | 0.00 | 0.43 | 0.43 | 77 | 1014.5 |
| 20260502190741 | 13 | 47 | 0.0 | 4.8 | 0.00 | 0.43 | 0.43 | 80 | 1014.5 |
| 20260502190238 | 13 | 43 | 0.0 | 0.0 | 0.00 | 0.43 | 0.43 | 79 | 1014.5 |
| 20260502185738 | 13 | 41 | 0.0 | 1.6 | 0.00 | 0.43 | 0.43 | 79 | 1014.7 |
| 20260502185235 | 13 | 30 | 0.0 | 1.6 | 0.00 | 0.43 | 0.43 | 79 | 1014.6 |
| 20260502184732 | 13 | 26 | 0.0 | 1.6 | 0.00 | 0.43 | 0.43 | 81 | 1014.7 |
| 20260502184227 | 13 | 45 | 1.6 | 1.6 | 0.00 | 0.43 | 0.43 | 80 | 1014.7 |
| 20260502183724 | 13 | 48 | 0.0 | 0.0 | 0.00 | 0.43 | 0.43 | 82 | 1014.7 |
| 20260502183220 | 13 | 52 | 0.0 | 1.6 | 0.00 | 0.43 | 0.43 | 79 | 1014.8 |
| 20260502182715 | 13 | 55 | 0.0 | 1.6 | 0.00 | 0.43 | 0.43 | 83 | 1014.7 |
| 20260502182211 | 13 | 17 | 0.0 | 1.6 | 0.00 | 0.43 | 0.43 | 85 | 1014.9 |
| 20260502181708 | 13 | 23 | 0.0 | 3.2 | 0.00 | 0.43 | 0.43 | 83 | 1015.1 |
| 20260502181208 | 12 | 32 | 0.0 | 0.0 | 0.00 | 0.43 | 0.43 | 87 | 1015.2 |
| 20260502180704 | 12 | 31 | 0.0 | 0.0 | 0.00 | 0.43 | 0.43 | 88 | 1015.2 |
| 20260502180202 | 12 | 40 | 0.0 | 1.6 | 0.00 | 0.43 | 0.43 | 88 | 1015.3 |
| 20260502170126 | 12 | 27 | 0.0 | 1.6 | 0.00 | 0.43 | 0.43 | 90 | 1015.3 |
| 20260502164112 | 12 | 37 | 0.0 | 0.0 | 0.00 | 0.43 | 0.43 | 91 | 1015.6 |
| 20260502163609 | 12 | 33 | 0.0 | 1.6 | 0.00 | 0.43 | 0.43 | 92 | 1015.9 |
| 20260502163105 | 12 | 33 | 0.0 | 1.6 | 0.18 | 0.43 | 0.43 | 92 | 1016.1 |
| 20260502162602 | 11 | 48 | 0.0 | 1.6 | 0.18 | 0.43 | 0.43 | 92 | 1015.9 |
| 20260502162059 | 11 | 231 | 3.2 | 3.2 | 0.00 | 0.41 | 0.41 | 91 | 1016.1 |
| 20260502161556 | 11 | 39 | 0.0 | 0.0 | 0.00 | 0.41 | 0.41 | 92 | 1016.2 |
| 20260502161053 | 11 | 73 | 1.6 | 3.2 | 0.13 | 0.41 | 0.41 | 90 | 1016.3 |
| 20260502160551 | 11 | 36 | 0.0 | 0.0 | 0.13 | 0.41 | 0.41 | 92 | 1016.2 |
| 20260502152004 | 12 | 25 | 0.0 | 0.0 | 0.18 | 0.38 | 0.38 | 92 | 1015.9 |
| 20260502151501 | 12 | 37 | 0.0 | 0.0 | 0.18 | 0.38 | 0.38 | 92 | 1016.1 |
| 20260502150958 | 12 | 29 | 0.0 | 0.0 | 0.00 | 0.36 | 0.36 | 92 | 1015.8 |
| 20260502150455 | 12 | 68 | 0.0 | 0.0 | 0.00 | 0.36 | 0.36 | 92 | 1015.9 |
| 20260502130341 | 11 | 37 | 0.0 | 0.0 | 0.13 | 0.13 | 0.13 | 91 | 1015.3 |
| 20260502123323 | 11 | 32 | 0.0 | 0.0 | 0.13 | 0.08 | 0.08 | 91 | 1014.9 |
| 20260502122820 | 11 | 29 | 0.0 | 0.0 | 0.00 | 0.05 | 0.05 | 91 | 1014.7 |
| 20260502122316 | 11 | 21 | 0.0 | 0.0 | 0.00 | 0.05 | 0.05 | 91 | 1014.7 |
| 20260502121815 | 11 | 33 | 0.0 | 0.0 | 0.00 | 0.05 | 0.05 | 90 | 1014.6 |
| 20260502121312 | 11 | 32 | 0.0 | 0.0 | 0.00 | 0.05 | 0.05 | 90 | 1014.6 |
| 20260502120809 | 11 | 36 | 0.0 | 0.0 | 0.00 | 0.05 | 0.05 | 90 | 1014.7 |
| 20260502120305 | 11 | 35 | 0.0 | 0.0 | 0.18 | 0.05 | 0.05 | 90 | 1014.8 |
| 20260502115803 | 11 | 36 | 0.0 | 0.0 | 0.18 | 0.05 | 0.05 | 90 | 1014.9 |
| 20260502115300 | 11 | 29 | 0.0 | 0.0 | 0.00 | 0.03 | 0.03 | 89 | 1014.8 |
| 20260502114755 | 11 | 29 | 0.0 | 0.0 | 0.00 | 0.03 | 0.03 | 88 | 1014.8 |
| 20260502114252 | 11 | 38 | 0.0 | 0.0 | 0.00 | 0.03 | 0.03 | 88 | 1014.9 |
| 20260502113750 | 11 | 38 | 0.0 | 0.0 | 0.00 | 0.03 | 0.03 | 88 | 1015.1 |
| 20260502113248 | 11 | 34 | 0.0 | 0.0 | 0.00 | 0.03 | 0.03 | 87 | 1014.9 |
| 20260502112745 | 11 | 32 | 0.0 | 0.0 | 0.13 | 0.03 | 0.03 | 86 | 1014.8 |
| 20260502112243 | 11 | 33 | 0.0 | 0.0 | 0.00 | 0.00 | 0.00 | 85 | 1014.9 |
| 20260502111740 | 11 | 32 | 0.0 | 0.0 | 0.00 | 0.00 | 0.00 | 85 | 1015.0 |
| 20260502111237 | 11 | 45 | 0.0 | 0.0 | 0.00 | 0.00 | 0.00 | 84 | 1015.1 |
| 20260502110735 | 11 | 39 | 0.0 | 0.0 | 0.00 | 0.00 | 0.00 | 84 | 1015.0 |
| 20260502110232 | 12 | 40 | 0.0 | 0.0 | 0.00 | 0.00 | 0.00 | 84 | 1014.9 |
| 20260502105730 | 11 | 23 | 0.0 | 0.0 | 0.00 | 0.00 | 0.00 | 84 | 1015.2 |
| 20260502105226 | 11 | 37 | 0.0 | 0.0 | 0.00 | 0.00 | 0.00 | 85 | 1014.9 |
| 20260502104724 | 11 | 43 | 0.0 | 0.0 | 0.00 | 0.00 | 0.00 | 86 | 1014.9 |
| 20260502104221 | 11 | 34 | 0.0 | 0.0 | 0.00 | 0.00 | 0.00 | 89 | 1015.0 |
| 20260502103719 | 11 | 33 | 0.0 | 0.0 | 0.00 | 0.00 | 0.00 | 88 | 1015.0 |
| 20260502103217 | 11 | 39 | 0.0 | 0.0 | 0.00 | 0.00 | 0.00 | 88 | 1015.2 |
| 20260502102713 | 11 | 39 | 0.0 | 0.0 | 0.00 | 0.00 | 0.00 | 87 | 1015.1 |
| 20260502102210 | 11 | 49 | 0.0 | 0.0 | 0.00 | 0.00 | 0.00 | 88 | 1015.1 |
| 20260502101708 | 11 | 49 | 0.0 | 0.0 | 0.00 | 0.00 | 0.00 | 88 | 1015.1 |
| 20260502101206 | 11 | 34 | 0.0 | 0.0 | 0.00 | 0.00 | 0.00 | 88 | 1015.1 |
| 20260502100704 | 11 | 34 | 0.0 | 0.0 | 0.00 | 0.00 | 0.00 | 88 | 1015.0 |
| 20260502100202 | 11 | 35 | 0.0 | 1.6 | 0.00 | 0.00 | 0.00 | 88 | 1015.0 |
| 20260502091136 | 11 | 41 | 0.0 | 1.6 | 0.00 | 0.00 | 0.00 | 92 | 1015.0 |
| 20260502090633 | 11 | 38 | 0.0 | 0.0 | 0.00 | 0.00 | 0.00 | 92 | 1014.8 |
| 20260502090130 | 11 | 35 | 0.0 | 0.0 | 0.00 | 0.00 | 0.00 | 92 | 1014.8 |
| 20260502071533 | 11 | 48 | 0.0 | 0.0 | 0.00 | 0.00 | 0.00 | 93 | 1014.0 |
| 20260502071032 | 11 | 48 | 0.0 | 0.0 | 0.00 | 0.00 | 0.00 | 93 | 1014.1 |
| 20260502070529 | 11 | 37 | 0.0 | 0.0 | 0.00 | 0.00 | 0.00 | 92 | 1014.0 |
| 20260502070027 | 11 | 37 | 0.0 | 0.0 | 0.00 | 0.00 | 0.00 | 93 | 1014.0 |
| 20260502065525 | 11 | 47 | 0.0 | 0.0 | 0.00 | 0.00 | 0.00 | 93 | 1014.2 |
| 20260502065023 | 11 | 48 | 0.0 | 0.0 | 0.00 | 0.00 | 0.00 | 92 | 1014.0 |
| 20260502064521 | 11 | 33 | 0.0 | 0.0 | 0.00 | 0.00 | 0.00 | 92 | 1014.0 |
| 20260502064018 | 11 | 54 | 0.0 | 0.0 | 0.00 | 0.00 | 0.00 | 92 | 1014.3 |
| 20260502063516 | 11 | 54 | 0.0 | 0.0 | 0.00 | 0.00 | 0.00 | 92 | 1014.4 |
| 20260502063014 | 11 | 54 | 0.0 | 0.0 | 0.00 | 0.00 | 0.00 | 92 | 1014.5 |
| 20260502062510 | 11 | 54 | 0.0 | 0.0 | 0.00 | 0.00 | 0.00 | 92 | 1014.4 |
| 20260502062009 | 11 | 54 | 0.0 | 0.0 | 0.00 | 0.00 | 0.00 | 92 | 1014.4 |
| 20260502061506 | 11 | 54 | 0.0 | 0.0 | 0.00 | 0.00 | 0.00 | 92 | 1014.3 |
| 20260502061003 | 11 | 54 | 0.0 | 0.0 | 0.00 | 0.00 | 0.00 | 92 | 1014.4 |
| 20260502060457 | 11 | 41 | 0.0 | 0.0 | 0.00 | 0.00 | 0.00 | 91 | 1014.5 |
| 20260502055954 | 11 | 41 | 0.0 | 0.0 | 0.00 | 0.00 | 0.00 | 91 | 1014.3 |
| 20260502055453 | 11 | 41 | 0.0 | 0.0 | 0.00 | 0.00 | 0.00 | 91 | 1014.3 |
| 20260502054952 | 11 | 41 | 0.0 | 0.0 | 0.00 | 0.00 | 0.00 | 91 | 1014.3 |
| 20260502054449 | 11 | 41 | 0.0 | 0.0 | 0.00 | 0.00 | 0.00 | 91 | 1014.7 |
| 20260502053946 | 11 | 41 | 0.0 | 0.0 | 0.00 | 0.00 | 0.00 | 91 | 1014.7 |
| 20260502053443 | 11 | 52 | 0.0 | 0.0 | 0.00 | 0.00 | 0.00 | 91 | 1014.6 |
| 20260502052941 | 11 | 53 | 0.0 | 0.0 | 0.00 | 0.00 | 0.00 | 91 | 1014.6 |
| 20260502052439 | 11 | 46 | 0.0 | 0.0 | 0.00 | 0.00 | 0.00 | 91 | 1014.7 |
| 20260502051937 | 11 | 46 | 0.0 | 0.0 | 0.00 | 0.00 | 0.00 | 91 | 1014.8 |
| 20260502051435 | 11 | 46 | 0.0 | 0.0 | 0.00 | 0.00 | 0.00 | 90 | 1014.8 |
| 20260502050932 | 11 | 48 | 0.0 | 0.0 | 0.00 | 0.00 | 0.00 | 90 | 1014.9 |
| 20260502050428 | 11 | 48 | 0.0 | 0.0 | 0.00 | 0.00 | 0.00 | 90 | 1015.0 |
| 20260502045926 | 11 | 53 | 0.0 | 0.0 | 0.00 | 0.00 | 0.00 | 90 | 1015.0 |
| 20260502045422 | 11 | 53 | 0.0 | 0.0 | 0.00 | 0.00 | 0.00 | 90 | 1015.0 |
| 20260502044919 | 11 | 74 | 0.0 | 0.0 | 0.00 | 0.00 | 0.00 | 90 | 1015.0 |
| 20260502044415 | 11 | 75 | 0.0 | 0.0 | 0.00 | 0.00 | 0.00 | 90 | 1015.0 |
| 20260502043912 | 11 | 61 | 0.0 | 0.0 | 0.00 | 0.00 | 0.00 | 90 | 1015.3 |
| 20260502043410 | 11 | 31 | 0.0 | 0.0 | 0.00 | 0.00 | 0.00 | 90 | 1015.1 |
| 20260502042909 | 11 | 31 | 0.0 | 0.0 | 0.00 | 0.00 | 0.00 | 90 | 1015.2 |
| 20260502042407 | 11 | 32 | 0.0 | 0.0 | 0.00 | 0.00 | 0.00 | 89 | 1015.4 |
| 20260502041904 | 11 | 27 | 0.0 | 0.0 | 0.00 | 0.00 | 0.00 | 89 | 1015.1 |
| 20260502041401 | 11 | 27 | 0.0 | 0.0 | 0.00 | 0.00 | 0.00 | 89 | 1015.1 |
| 20260502040858 | 11 | 27 | 0.0 | 0.0 | 0.00 | 0.00 | 0.00 | 89 | 1015.2 |
| 20260502040355 | 11 | 26 | 0.0 | 0.0 | 0.00 | 0.00 | 0.00 | 89 | 1015.4 |
| 20260502035851 | 11 | 28 | 0.0 | 0.0 | 0.00 | 0.08 | 0.08 | 88 | 1015.3 |
| 20260502035348 | 11 | 28 | 0.0 | 0.0 | 0.00 | 0.08 | 0.08 | 88 | 1015.3 |
| 20260502034845 | 11 | 28 | 0.0 | 0.0 | 0.00 | 0.08 | 0.08 | 88 | 1015.2 |
| 20260502034343 | 11 | 28 | 0.0 | 0.0 | 0.00 | 0.08 | 0.08 | 87 | 1015.3 |
| 20260502033842 | 11 | 28 | 0.0 | 0.0 | 0.00 | 0.08 | 0.08 | 87 | 1015.3 |
| 20260502033339 | 11 | 28 | 0.0 | 0.0 | 0.00 | 0.08 | 0.08 | 86 | 1015.3 |